FW8927 Weather Reports


Display with metric or nautical units.
time (UTC)temp
F
wind
direction
speed
MPH
gust
MPH
rain 1hr
in
rain 24hr
in
rain mn
in
humidity
%
barometer
mb
20260510010058 63 298 1.0 4.0 0.00 0.00 0.00 75 1008.8
20260510004553 64 252 1.0 6.0 0.00 0.00 0.00 74 1008.6
20260510003103 64 244 3.0 8.0 0.00 0.00 0.00 73 1008.5
20260510001553 65 229 2.0 6.0 0.00 0.00 0.00 72 1008.1
20260510000056 65 270 2.0 6.0 0.00 0.00 0.00 72 1008.0
20260509234557 66 273 2.0 5.0 0.00 0.00 0.00 70 1008.0
20260509233053 67 266 2.0 8.0 0.00 0.00 0.00 68 1007.9
20260509231605 67 203 3.0 10.0 0.00 0.00 0.00 68 1007.8
20260509230100 68 306 4.0 9.0 0.00 0.00 0.00 65 1007.8
20260509224556 68 248 1.0 8.0 0.00 0.00 0.00 68 1007.9
20260509223103 68 213 3.0 10.0 0.00 0.00 0.00 65 1007.7
20260509221603 68 263 3.0 10.0 0.00 0.00 0.00 66 1007.7
20260509220100 68 233 6.0 10.0 0.00 0.00 0.00 65 1007.7
20260509214559 67 274 3.0 10.0 0.00 0.00 0.00 70 1007.7
20260509213105 67 265 5.0 9.0 0.00 0.00 0.00 69 1007.8
20260509211557 68 284 4.0 11.0 0.00 0.00 0.00 69 1007.7
20260509210053 67 238 3.0 14.0 0.00 0.00 0.00 70 1007.8
20260509204552 67 286 4.0 9.0 0.00 0.00 0.00 69 1007.8
20260509203053 66 161 4.0 9.0 0.00 0.00 0.00 73 1007.9
20260509201555 66 262 6.0 15.0 0.00 0.00 0.00 71 1008.0
20260509200054 67 263 5.0 11.0 0.00 0.00 0.00 72 1008.1
20260509194559 66 294 2.0 11.0 0.00 0.00 0.00 76 1008.1
20260509193056 64 249 3.0 10.0 0.00 0.00 0.00 77 1008.1
20260509191606 64 230 3.0 10.0 0.00 0.00 0.00 76 1008.0
20260509190055 65 231 5.0 10.0 0.00 0.00 0.00 75 1008.0
20260509184604 65 276 3.0 7.0 0.00 0.00 0.00 78 1008.1
20260509183059 63 219 3.0 9.0 0.00 0.00 0.00 78 1008.0
20260509181605 63 152 4.0 11.0 0.00 0.00 0.00 80 1007.9
20260509180112 62 233 5.0 12.0 0.00 0.00 0.00 79 1007.9
20260509174553 62 252 9.0 14.0 0.00 0.00 0.00 80 1007.8
20260509173105 62 215 8.0 13.0 0.00 0.00 0.00 79 1007.6
20260509171553 62 294 4.0 12.0 0.00 0.00 0.00 81 1007.8
20260509170052 61 199 5.0 14.0 0.00 0.00 0.00 83 1007.8
20260509164553 59 190 6.0 13.0 0.00 0.00 0.00 83 1008.1
20260509163058 58 217 6.0 9.0 0.00 0.00 0.00 83 1008.3
20260509161603 57 238 2.0 5.0 0.00 0.00 0.00 85 1008.5
20260509154556 57 240 1.0 6.0 0.00 0.00 0.00 84 1008.5
20260509153102 57 240 2.0 6.0 0.00 0.00 0.00 84 1008.3
20260509151552 57 223 2.0 8.0 0.00 0.00 0.00 82 1008.0
20260509150053 57 236 2.0 7.0 0.00 0.00 0.00 79 1008.0
20260509144558 58 236 2.0 12.0 0.00 0.00 0.00 79 1007.9
20260509143058 57 243 2.0 9.0 0.00 0.00 0.00 78 1007.6
20260509141556 57 209 7.0 13.0 0.00 0.00 0.00 77 1007.6
20260509140106 56 209 4.0 11.0 0.00 0.00 0.00 78 1007.6
20260509134554 55 234 6.0 10.0 0.00 0.00 0.00 78 1007.6
20260509133059 55 227 3.0 8.0 0.00 0.00 0.00 78 1007.7
20260509131555 55 227 3.0 6.0 0.00 0.00 0.00 78 1007.5
20260509130055 55 227 3.0 7.0 0.00 0.00 0.00 77 1007.4
20260509124556 55 221 4.0 7.0 0.00 0.00 0.00 76 1007.4
20260509123053 55 271 1.0 9.0 0.00 0.00 0.00 76 1007.6
20260509121603 55 210 4.0 9.0 0.00 0.00 0.00 75 1007.4
20260509120100 54 0 0.0 3.0 0.00 0.00 0.00 75 1007.5
20260509114557 53 254 2.0 8.0 0.00 0.00 0.00 75 1007.4
20260509113054 53 244 2.0 8.0 0.00 0.00 0.00 75 1007.2
20260509111557 52 256 4.0 7.0 0.00 0.00 0.00 75 1007.3
20260509110051 52 213 3.0 7.0 0.00 0.00 0.00 75 1006.9
20260509104600 52 214 4.0 8.0 0.00 0.00 0.00 75 1006.9
20260509103105 52 209 3.0 8.0 0.00 0.00 0.00 75 1007.1
20260509101611 52 219 3.0 9.0 0.00 0.00 0.00 75 1007.0
20260509100055 52 211 4.0 9.0 0.00 0.00 0.00 76 1007.3
20260509094601 51 217 2.0 5.0 0.00 0.00 0.00 77 1007.2
20260509093055 51 207 1.0 4.0 0.00 0.00 0.00 78 1007.2
20260509091556 50 225 1.0 3.0 0.00 0.00 0.00 77 1007.2
20260509090100 50 240 1.0 3.0 0.00 0.00 0.00 78 1007.5
20260509084601 50 0 0.0 0.0 0.00 0.00 0.00 77 1007.5
20260509083106 51 0 0.0 0.0 0.00 0.00 0.00 73 1007.7
20260509081552 52 0 0.0 0.0 0.00 0.00 0.00 72 1007.7
20260509080054 53 0 0.0 4.0 0.00 0.00 0.00 69 1007.5
20260509074610 53 0 1.0 4.0 0.00 0.00 0.00 69 1007.6
20260509073106 53 219 1.0 4.0 0.00 0.00 0.00 68 1007.8
20260509071558 53 236 2.0 6.0 0.00 0.00 0.00 68 1007.8
20260509070057 53 253 1.0 4.0 0.00 0.00 0.00 70 1007.8
20260509064556 53 237 1.0 3.0 0.00 0.00 0.00 68 1007.9
20260509063101 52 219 1.0 3.0 0.00 0.00 0.00 73 1008.1
20260509061553 52 0 0.0 2.0 0.00 0.00 0.00 74 1007.9
20260509060110 51 0 0.0 0.0 0.00 0.00 0.00 75 1008.0
20260509054554 51 0 0.0 0.0 0.00 0.00 0.00 79 1008.0
20260509053109 52 0 0.0 0.0 0.00 0.00 0.00 80 1008.1
20260509051558 52 0 0.0 0.0 0.00 0.00 0.00 79 1008.2
20260509050054 53 0 0.0 0.0 0.00 0.00 0.00 76 1008.1
20260509044553 54 0 0.0 0.0 0.00 0.00 0.00 72 1008.2
20260509043057 55 0 0.0 2.0 0.00 0.00 0.00 63 1008.2
20260509041551 55 229 0.0 2.0 0.00 0.00 0.00 64 1008.2
20260509040107 55 0 0.0 0.0 0.00 0.00 0.00 65 1008.1
20260509034554 56 0 0.0 1.0 0.00 0.00 0.00 67 1008.2
20260509033116 57 0 0.0 2.0 0.00 0.00 0.00 61 1008.5
20260509031554 58 0 0.0 2.0 0.00 0.00 0.00 55 1008.8
20260509030055 59 0 0.0 1.0 0.00 0.00 0.00 54 1008.8
20260509024604 59 0 0.0 2.0 0.00 0.00 0.00 53 1008.9
20260509023055 59 0 0.0 2.0 0.00 0.00 0.00 52 1009.0
20260509021555 60 0 0.0 2.0 0.00 0.00 0.00 53 1009.1
20260509020107 60 0 0.0 1.0 0.00 0.00 0.00 52 1009.0
20260509014554 60 0 0.0 0.0 0.00 0.00 0.00 50 1009.2
20260509013056 60 0 0.0 0.0 0.00 0.00 0.00 50 1009.1
20260509011601 61 0 0.0 0.0 0.00 0.00 0.00 51 1009.2